Location: Crni Vrh Observatory
(45.9460°N, 14.0712°E)
Time: 20:28:05
(UTC+01:00)

ISS - Visible Passes

Search period start: 19 January 2018 00:00
Search period end: 29 January 2018 00:00
Orbit: 402 x 407 km, 51.6° (Epoch: 20 January)

Date Brightness Start Highest point End Pass type
(mag) Time Alt. Az. Time Alt. Az. Time Alt. Az.
24 Jan -1.3 19:02:36 10° SSW 19:03:16 14° S 19:03:16 14° S visible
25 Jan -1.6 18:11:30 10° SSE 18:13:04 13° SE 18:13:26 13° SE visible
25 Jan -0.6 19:45:49 10° WSW 19:46:07 12° WSW 19:46:07 12° WSW visible
26 Jan -3.0 18:53:36 10° SW 18:56:11 41° S 18:56:11 41° S visible
27 Jan -2.5 18:01:40 10° SSW 18:04:29 27° SE 18:06:11 17° E visible
27 Jan -1.2 19:37:35 10° WSW 19:38:51 21° W 19:38:51 21° W visible
28 Jan -4.0 18:45:05 10° WSW 18:48:21 86° NNW 18:48:45 66° NE visible
